EWG5PD LOWS-EDDW

Flight info

Callsign EWG5PD
Flight time 1h 9m
Altitude 36000
Route INROM DCT SIMBA Y700 NENUM DCT EPTEU L604 RUDNO M736 AKOSI DCT LASGA M726 LASTO/N0429F300 M852 POVEL L986 SAS Z88 VERED VERED3P
Aircraft A319/M-SDE3FGHIRWY/LB1

Departure

Time 2026-05-06 19:04
Airport Salzburg Airport (LOWS)

Arrival

Time 2026-05-06 20:13
Airport Bremen Airport (EDDW)
Time Latitude Longitude Altitude Speed Heading
2026-05-06 18:35 47.79091 12.99953 1420 ft 0 kts 282°
2026-05-06 18:54 47.79096 12.99951 1423 ft 1 kts 332°
2026-05-06 18:55 47.79107 12.99968 1421 ft 3 kts 62°
2026-05-06 18:55 47.79115 13.00016 1420 ft 7 kts 77°
2026-05-06 18:55 47.79089 13.00082 1420 ft 9 kts 160°
2026-05-06 18:55 47.79018 13.00115 1422 ft 12 kts 158°
2026-05-06 18:56 47.78956 13.00213 1420 ft 16 kts 97°
2026-05-06 18:56 47.78927 13.00379 1420 ft 18 kts 142°
2026-05-06 18:56 47.78797 13.00465 1420 ft 23 kts 157°
2026-05-06 18:56 47.78636 13.00567 1420 ft 27 kts 156°
2026-05-06 18:57 47.78456 13.00682 1422 ft 29 kts 157°
2026-05-06 18:57 47.78281 13.00792 1424 ft 26 kts 157°
2026-05-06 18:57 47.78212 13.00857 1431 ft 0 kts 129°
2026-05-06 19:02 47.78197 13.00885 1420 ft 7 kts 126°
2026-05-06 19:02 47.78186 13.00974 1419 ft 13 kts 84°
2026-05-06 19:02 47.78235 13.01073 1421 ft 12 kts 10°
2026-05-06 19:03 47.78316 13.01035 1423 ft 17 kts 337°
2026-05-06 19:03 47.78585 13.00867 1420 ft 69 kts 337°
2026-05-06 19:03 47.79195 13.00481 1420 ft 121 kts 337°
2026-05-06 19:03 47.80125 12.99896 1456 ft 165 kts 337°
2026-05-06 19:04 47.81155 12.99234 2126 ft 160 kts 333°
2026-05-06 19:04 47.82276 12.98970 2820 ft 173 kts 358°
2026-05-06 19:04 47.83511 12.99688 3068 ft 211 kts 28°
2026-05-06 19:04 47.84748 13.01119 3324 ft 240 kts 32°
2026-05-06 19:05 47.86155 13.02688 3760 ft 265 kts 32°
2026-05-06 19:05 47.87690 13.04342 4516 ft 278 kts 32°
2026-05-06 19:05 47.89279 13.06048 5380 ft 285 kts 33°
2026-05-06 19:05 47.90904 13.07795 5857 ft 290 kts 34°
2026-05-06 19:06 47.92536 13.09559 5998 ft 290 kts 34°
2026-05-06 19:06 47.94170 13.11329 6031 ft 290 kts 34°
2026-05-06 19:06 47.95809 13.13106 6074 ft 294 kts 34°
2026-05-06 19:06 47.97461 13.14897 6893 ft 294 kts 34°
2026-05-06 19:07 47.99267 13.16351 7711 ft 296 kts 18°
2026-05-06 19:07 48.01275 13.17015 8526 ft 297 kts
2026-05-06 19:07 48.03339 13.16842 9361 ft 297 kts 345°
2026-05-06 19:07 48.05281 13.15855 10144 ft 296 kts 329°
2026-05-06 19:08 48.07157 13.14355 10449 ft 318 kts 327°
2026-05-06 19:08 48.09166 13.12724 10796 ft 336 kts 327°
2026-05-06 19:08 48.11272 13.11022 11450 ft 342 kts 327°
2026-05-06 19:08 48.13384 13.09322 11749 ft 345 kts 327°
2026-05-06 19:09 48.15500 13.07622 11824 ft 346 kts 327°
2026-05-06 19:09 48.17617 13.05919 11832 ft 345 kts 327°
2026-05-06 19:09 48.19735 13.04215 11834 ft 346 kts 327°
2026-05-06 19:09 48.21882 13.02547 12072 ft 351 kts 332°
2026-05-06 19:10 48.24215 13.01384 12793 ft 358 kts 343°
2026-05-06 19:10 48.26695 13.00780 13507 ft 363 kts 348°
2026-05-06 19:10 48.29177 13.00075 14126 ft 364 kts 341°
2026-05-06 19:10 48.31622 12.99068 14752 ft 366 kts 340°
2026-05-06 19:11 48.34093 12.98007 15382 ft 370 kts 340°
2026-05-06 19:11 48.36574 12.96921 16002 ft 373 kts 340°
2026-05-06 19:11 48.39082 12.95822 16620 ft 377 kts 340°
2026-05-06 19:11 48.41608 12.94716 17233 ft 381 kts 340°
2026-05-06 19:12 48.44172 12.93596 17845 ft 385 kts 340°
2026-05-06 19:12 48.46757 12.92469 18405 ft 389 kts 340°
2026-05-06 19:12 48.49367 12.91339 18930 ft 392 kts 340°
2026-05-06 19:12 48.52004 12.90198 19475 ft 396 kts 340°
2026-05-06 19:13 48.54663 12.89052 20018 ft 399 kts 340°
2026-05-06 19:13 48.57344 12.87894 20565 ft 402 kts 340°
2026-05-06 19:13 48.60044 12.86720 21093 ft 405 kts 340°
2026-05-06 19:13 48.62764 12.85530 21621 ft 409 kts 340°
2026-05-06 19:14 48.65505 12.84328 22154 ft 411 kts 340°
2026-05-06 19:14 48.68260 12.83121 22680 ft 414 kts 340°
2026-05-06 19:14 48.71041 12.81905 23193 ft 417 kts 340°
2026-05-06 19:14 48.73838 12.80681 23630 ft 420 kts 340°
2026-05-06 19:15 48.75739 12.79845 23919 ft 422 kts 340°
2026-05-06 19:15 48.79484 12.78192 24449 ft 425 kts 340°
2026-05-06 19:15 48.82381 12.76917 24862 ft 428 kts 340°
2026-05-06 19:15 48.85210 12.75675 25258 ft 431 kts 340°
2026-05-06 19:16 48.88140 12.74390 25658 ft 434 kts 340°
2026-05-06 19:16 48.91045 12.73112 26053 ft 436 kts 340°
2026-05-06 19:16 48.93934 12.71837 26429 ft 439 kts 340°
2026-05-06 19:16 48.96912 12.70512 26812 ft 442 kts 340°
2026-05-06 19:17 48.99877 12.69187 27194 ft 445 kts 340°
2026-05-06 19:17 49.02861 12.67859 27575 ft 448 kts 340°
2026-05-06 19:17 49.05814 12.66360 27947 ft 449 kts 334°
2026-05-06 19:17 49.08724 12.64571 28319 ft 451 kts 333°
2026-05-06 19:18 49.11634 12.62734 28687 ft 454 kts 333°
2026-05-06 19:18 49.14559 12.60852 29051 ft 458 kts 332°
2026-05-06 19:18 49.17499 12.58941 29398 ft 461 kts 332°
2026-05-06 19:18 49.20460 12.57015 29716 ft 464 kts 332°
2026-05-06 19:19 49.23445 12.55080 29994 ft 468 kts 332°
2026-05-06 19:19 49.26454 12.53144 30283 ft 471 kts 332°
2026-05-06 19:19 49.29487 12.51204 30580 ft 473 kts 332°
2026-05-06 19:19 49.32533 12.49253 30877 ft 475 kts 332°
2026-05-06 19:20 49.35588 12.47289 31163 ft 477 kts 331°
2026-05-06 19:20 49.38659 12.45307 31498 ft 478 kts 331°
2026-05-06 19:20 49.41718 12.43327 31935 ft 477 kts 331°
2026-05-06 19:20 49.44767 12.41353 32388 ft 475 kts 331°
2026-05-06 19:21 49.47804 12.39393 32838 ft 473 kts 331°
2026-05-06 19:21 49.50829 12.37440 33287 ft 471 kts 330°
2026-05-06 19:21 49.53848 12.35488 33688 ft 470 kts 330°
2026-05-06 19:22 49.59862 12.31580 33794 ft 469 kts 330°
2026-05-06 19:22 49.65908 12.27625 33797 ft 469 kts 330°
2026-05-06 19:23 49.70900 12.24345 33795 ft 469 kts 330°
2026-05-06 19:23 49.76908 12.20400 33796 ft 470 kts 330°
2026-05-06 19:24 49.82924 12.16445 33795 ft 470 kts 330°
2026-05-06 19:24 49.88952 12.12469 34053 ft 471 kts 331°
2026-05-06 19:24 49.91962 12.10483 34392 ft 470 kts 331°
2026-05-06 19:25 49.94965 12.08498 34717 ft 469 kts 331°
2026-05-06 19:25 49.97970 12.06515 35044 ft 469 kts 332°
2026-05-06 19:25 50.00971 12.04530 35360 ft 468 kts 332°
2026-05-06 19:25 50.03965 12.02543 35670 ft 468 kts 332°
2026-05-06 19:26 50.06960 12.00552 35790 ft 467 kts 332°
2026-05-06 19:26 50.12949 11.96556 35808 ft 464 kts 332°
2026-05-06 19:27 50.18866 11.92581 35811 ft 463 kts 332°
2026-05-06 19:27 50.24785 11.88620 35813 ft 463 kts 332°
2026-05-06 19:28 50.30705 11.84658 35812 ft 462 kts 332°
2026-05-06 19:28 50.36612 11.80675 35814 ft 462 kts 332°
2026-05-06 19:29 50.42512 11.76688 35816 ft 462 kts 332°
2026-05-06 19:29 50.48413 11.72681 35812 ft 462 kts 332°
2026-05-06 19:30 50.54308 11.68674 35810 ft 462 kts 332°
2026-05-06 19:30 50.60205 11.64660 35803 ft 462 kts 332°
2026-05-06 19:31 50.66099 11.60636 35804 ft 462 kts 331°
2026-05-06 19:31 50.74927 11.54581 35802 ft 461 kts 331°
2026-05-06 19:32 50.80843 11.50505 35802 ft 460 kts 331°
2026-05-06 19:32 50.86712 11.46451 35801 ft 460 kts 331°
2026-05-06 19:33 50.92578 11.42403 35801 ft 460 kts 332°
2026-05-06 19:33 50.98432 11.38352 35800 ft 459 kts 331°
2026-05-06 19:34 51.04286 11.34290 35800 ft 459 kts 331°
2026-05-06 19:34 51.10125 11.30210 35804 ft 458 kts 331°
2026-05-06 19:35 51.15966 11.26115 35805 ft 458 kts 331°
2026-05-06 19:35 51.21798 11.22026 35808 ft 458 kts 331°
2026-05-06 19:36 51.27634 11.17912 35803 ft 458 kts 332°
2026-05-06 19:36 51.33469 11.13804 35808 ft 458 kts 332°
2026-05-06 19:37 51.39302 11.09689 35814 ft 458 kts 332°
2026-05-06 19:37 51.45120 11.05560 35819 ft 457 kts 332°
2026-05-06 19:38 51.50926 11.01431 35814 ft 456 kts 332°
2026-05-06 19:38 51.56728 10.97295 35816 ft 456 kts 332°
2026-05-06 19:39 51.62561 10.93122 35816 ft 455 kts 332°
2026-05-06 19:39 51.68533 10.89653 35823 ft 461 kts 345°
2026-05-06 19:40 51.74927 10.88395 35812 ft 463 kts 351°
2026-05-06 19:40 51.78127 10.87857 35413 ft 462 kts 351°
2026-05-06 19:40 51.81325 10.87314 34878 ft 462 kts 351°
2026-05-06 19:41 51.84524 10.86769 34338 ft 462 kts 351°
2026-05-06 19:41 51.87716 10.86268 33913 ft 459 kts 352°
2026-05-06 19:41 51.90884 10.85818 33457 ft 455 kts 352°
2026-05-06 19:41 51.94030 10.85394 32969 ft 452 kts 352°
2026-05-06 19:42 51.97150 10.84981 32500 ft 448 kts 352°
2026-05-06 19:42 52.00249 10.84566 32007 ft 445 kts 352°
2026-05-06 19:42 52.03315 10.84091 31526 ft 440 kts 347°
2026-05-06 19:42 52.06231 10.82815 31066 ft 430 kts 334°
2026-05-06 19:43 52.08864 10.80617 30600 ft 420 kts 321°
2026-05-06 19:43 52.11111 10.77688 30141 ft 410 kts 310°
2026-05-06 19:43 52.12920 10.74179 29653 ft 401 kts 298°
2026-05-06 19:43 52.14247 10.70261 29124 ft 391 kts 288°
2026-05-06 19:44 52.15070 10.66106 28632 ft 382 kts 278°
2026-05-06 19:44 52.15623 10.61884 28127 ft 379 kts 278°
2026-05-06 19:44 52.16170 10.57697 27649 ft 377 kts 278°
2026-05-06 19:44 52.16714 10.53532 27186 ft 375 kts 278°
2026-05-06 19:45 52.17254 10.49401 26727 ft 373 kts 278°
2026-05-06 19:45 52.17795 10.45281 26285 ft 371 kts 279°
2026-05-06 19:45 52.18334 10.41182 25858 ft 369 kts 279°
2026-05-06 19:45 52.18866 10.37116 25433 ft 367 kts 279°
2026-05-06 19:46 52.19395 10.33052 25009 ft 365 kts 279°
2026-05-06 19:46 52.19925 10.28967 24579 ft 363 kts 279°
2026-05-06 19:46 52.20443 10.24950 24163 ft 361 kts 280°
2026-05-06 19:46 52.20957 10.20957 23732 ft 359 kts 280°
2026-05-06 19:47 52.21467 10.16984 23321 ft 357 kts 280°
2026-05-06 19:47 52.21971 10.13035 22840 ft 354 kts 280°
2026-05-06 19:47 52.22470 10.09118 22376 ft 352 kts 280°
2026-05-06 19:47 52.22966 10.05224 21913 ft 349 kts 280°
2026-05-06 19:48 52.23455 10.01369 21458 ft 346 kts 279°
2026-05-06 19:48 52.23937 9.97542 21010 ft 343 kts 279°
2026-05-06 19:48 52.24485 9.93759 20555 ft 342 kts 285°
2026-05-06 19:48 52.25397 9.90186 20116 ft 342 kts 295°
2026-05-06 19:49 52.26691 9.86925 19672 ft 343 kts 306°
2026-05-06 19:49 52.28325 9.84081 19239 ft 344 kts 315°
2026-05-06 19:49 52.30162 9.81589 18802 ft 343 kts 317°
2026-05-06 19:49 52.31995 9.79111 18375 ft 341 kts 317°
2026-05-06 19:50 52.33815 9.76636 17925 ft 339 kts 317°
2026-05-06 19:50 52.35621 9.74169 17458 ft 337 kts 317°
2026-05-06 19:50 52.37406 9.71728 17000 ft 335 kts 317°
2026-05-06 19:50 52.39197 9.69283 16540 ft 333 kts 317°
2026-05-06 19:51 52.40971 9.66869 16096 ft 331 kts 317°
2026-05-06 19:51 52.42739 9.64463 15658 ft 329 kts 317°
2026-05-06 19:51 52.44493 9.62071 15230 ft 327 kts 317°
2026-05-06 19:51 52.46237 9.59691 14798 ft 325 kts 317°
2026-05-06 19:52 52.47975 9.57318 14376 ft 324 kts 317°
2026-05-06 19:52 52.49699 9.54958 13970 ft 322 kts 317°
2026-05-06 19:52 52.51415 9.52606 13561 ft 321 kts 317°
2026-05-06 19:52 52.53121 9.50267 13105 ft 319 kts 318°
2026-05-06 19:53 52.54818 9.47937 12664 ft 317 kts 318°
2026-05-06 19:53 52.56502 9.45616 12240 ft 315 kts 318°
2026-05-06 19:53 52.58177 9.43301 11828 ft 313 kts 318°
2026-05-06 19:53 52.59840 9.41004 11421 ft 311 kts 319°
2026-05-06 19:54 52.61518 9.38761 11053 ft 310 kts 323°
2026-05-06 19:54 52.63373 9.36901 10748 ft 306 kts 333°
2026-05-06 19:54 52.65296 9.35597 10488 ft 294 kts 340°
2026-05-06 19:54 52.67204 9.34473 10078 ft 289 kts 340°
2026-05-06 19:55 52.69081 9.33352 9630 ft 285 kts 340°
2026-05-06 19:55 52.70312 9.32613 9308 ft 283 kts 341°
2026-05-06 19:55 52.72158 9.31505 8857 ft 282 kts 341°
2026-05-06 19:55 52.73994 9.30402 8612 ft 279 kts 341°
2026-05-06 19:56 52.75814 9.29306 8341 ft 278 kts 341°
2026-05-06 19:56 52.77620 9.28217 8048 ft 277 kts 342°
2026-05-06 19:56 52.79427 9.27130 7807 ft 274 kts 342°
2026-05-06 19:56 52.81166 9.26078 7677 ft 259 kts 342°
2026-05-06 19:57 52.82817 9.25076 7541 ft 246 kts 342°
2026-05-06 19:57 52.84407 9.24113 7187 ft 243 kts 342°
2026-05-06 19:57 52.85991 9.23158 6908 ft 242 kts 342°
2026-05-06 19:57 52.87571 9.22202 6630 ft 241 kts 342°
2026-05-06 19:58 52.89145 9.21249 6322 ft 242 kts 342°
2026-05-06 19:58 52.90723 9.20294 6045 ft 240 kts 342°
2026-05-06 19:58 52.92287 9.19349 5752 ft 239 kts 342°
2026-05-06 19:58 52.93841 9.18389 5452 ft 238 kts 339°
2026-05-06 19:59 52.95239 9.16899 5154 ft 241 kts 320°
2026-05-06 19:59 52.96300 9.14751 4845 ft 243 kts 302°
2026-05-06 19:59 52.96915 9.12137 4554 ft 245 kts 284°
2026-05-06 19:59 52.97024 9.09324 4248 ft 246 kts 269°
2026-05-06 20:00 52.96956 9.06502 4044 ft 243 kts 269°
2026-05-06 20:00 52.96896 9.03704 3915 ft 243 kts 270°
2026-05-06 20:00 52.96841 9.00909 3790 ft 242 kts 270°
2026-05-06 20:00 52.96785 8.98120 3659 ft 242 kts 270°
2026-05-06 20:01 52.96724 8.95294 3535 ft 241 kts 270°
2026-05-06 20:01 52.96664 8.92518 3406 ft 241 kts 270°
2026-05-06 20:01 52.96604 8.89744 3281 ft 241 kts 270°
2026-05-06 20:01 52.96543 8.86970 3158 ft 240 kts 270°
2026-05-06 20:02 52.96482 8.84206 3046 ft 240 kts 270°
2026-05-06 20:02 52.96419 8.81443 2997 ft 240 kts 270°
2026-05-06 20:02 52.96356 8.78676 3007 ft 240 kts 270°
2026-05-06 20:02 52.96292 8.75904 3006 ft 240 kts 270°
2026-05-06 20:03 52.96228 8.73133 3006 ft 240 kts 270°
2026-05-06 20:03 52.96163 8.70360 3008 ft 240 kts 270°
2026-05-06 20:03 52.96099 8.67595 3009 ft 240 kts 270°
2026-05-06 20:03 52.96032 8.64823 3007 ft 241 kts 270°
2026-05-06 20:04 52.95964 8.62052 2999 ft 241 kts 270°
2026-05-06 20:04 52.95896 8.59271 2997 ft 241 kts 270°
2026-05-06 20:04 52.95830 8.56494 3002 ft 241 kts 270°
2026-05-06 20:04 52.95762 8.53715 3000 ft 241 kts 270°
2026-05-06 20:05 52.95693 8.50934 3003 ft 241 kts 270°
2026-05-06 20:05 52.95623 8.48154 3006 ft 241 kts 270°
2026-05-06 20:05 52.95551 8.45430 2998 ft 229 kts 270°
2026-05-06 20:05 52.95727 8.42937 3003 ft 207 kts 294°
2026-05-06 20:06 52.96421 8.40970 3007 ft 192 kts 317°
2026-05-06 20:06 52.97466 8.39702 3002 ft 183 kts 340°
2026-05-06 20:06 52.98670 8.39214 2999 ft 176 kts
2026-05-06 20:06 52.99862 8.39484 3000 ft 172 kts 21°
2026-05-06 20:07 53.00903 8.40429 3000 ft 171 kts 40°
2026-05-06 20:07 53.01672 8.41912 3001 ft 170 kts 58°
2026-05-06 20:07 53.02219 8.43657 3003 ft 170 kts 61°
2026-05-06 20:07 53.02767 8.45401 3005 ft 170 kts 61°
2026-05-06 20:08 53.03317 8.47141 3008 ft 170 kts 61°
2026-05-06 20:08 53.03794 8.48946 2997 ft 172 kts 71°
2026-05-06 20:08 53.03966 8.50915 3007 ft 173 kts 82°
2026-05-06 20:08 53.04049 8.52915 2925 ft 174 kts 84°
2026-05-06 20:09 53.04111 8.54917 2738 ft 172 kts 84°
2026-05-06 20:09 53.04161 8.56848 2525 ft 162 kts 84°
2026-05-06 20:09 53.04207 8.58660 2311 ft 152 kts 84°
2026-05-06 20:09 53.04249 8.60377 2119 ft 138 kts 84°
2026-05-06 20:10 53.04286 8.61899 1938 ft 128 kts 83°
2026-05-06 20:10 53.04323 8.63355 1766 ft 124 kts 83°
2026-05-06 20:10 53.04358 8.64786 1596 ft 124 kts 83°
2026-05-06 20:10 53.04392 8.66210 1428 ft 123 kts 83°
2026-05-06 20:11 53.04423 8.67633 1253 ft 124 kts 84°
2026-05-06 20:11 53.04458 8.69054 1063 ft 123 kts 82°
2026-05-06 20:11 53.04507 8.70477 901 ft 125 kts 85°
2026-05-06 20:11 53.04540 8.71925 702 ft 126 kts 84°
2026-05-06 20:12 53.04568 8.73390 541 ft 127 kts 84°
2026-05-06 20:12 53.04597 8.74869 352 ft 128 kts 85°
2026-05-06 20:12 53.04629 8.76357 176 ft 129 kts 86°
2026-05-06 20:12 53.04661 8.77833 43 ft 125 kts 86°
2026-05-06 20:13 53.04694 8.79006 22 ft 65 kts 89°
2026-05-06 20:13 53.04743 8.79283 22 ft 15 kts 27°
2026-05-06 20:13 53.04856 8.79272 22 ft 17 kts 316°
2026-05-06 20:13 53.04857 8.79100 22 ft 16 kts 271°
2026-05-06 20:14 53.04856 8.78937 22 ft 6 kts 268°
2026-05-06 20:14 53.04854 8.78850 22 ft 9 kts 268°
2026-05-06 20:14 53.04857 8.78728 22 ft 13 kts 280°
2026-05-06 20:14 53.04929 8.78653 22 ft 11 kts 358°
2026-05-06 20:15 53.05000 8.78624 22 ft 12 kts 326°
2026-05-06 20:15 53.05047 8.78552 22 ft 9 kts 318°
2026-05-06 20:15 53.05099 8.78478 22 ft 10 kts 317°
2026-05-06 20:15 53.05135 8.78465 22 ft 4 kts 39°
2026-05-06 20:16 53.05166 8.78522 22 ft 9 kts 49°
2026-05-06 20:16 53.05177 8.78543 22 ft 0 kts 50°